SCP
0 0 0 0 0 0 0 0 0 0 0 0 0 0 0 0 0 0 0 0 0 0 0 0 0 0 0 0 0 0 0 0 0 0 0 0 0 0
0 0 0 0 0 0 0 0 0 0 0 0 0 0 0 0 0 0 0 0 0 0 0 0 0 0 0 0 0 0 0 0 0 0 0 0 0 0
0 0 0 0 0 0 0 0 0 0 0 0 0 0 0 0 0 0 0 0 0 0 0 0 0 0 0 0 0 0 0 0 0 0 0 0 0 0
0 0 0 0 0 0 0 0 0 0 0 0 0 0 0 0 0 0 0 0 0 0 0 0 0 0 0 0 0 0 0 0 0 0 0 0 0 0
0 0 0 0 0 0 0 0 0 0 0 0 0 0 0 0 0 0 0 0 0 0 0 0 0 0 0 0 0 0 0 0 0 0 0 0 0 0
0 0 0 0 0 0 0 0 0 0 0 0 0 0 0 0 0 0 0 0 0 0 0 0 0 0 0 0 0 0 0 0 0 0 0 0 0 0
0 0 0 0 0 0 0 0 0 0 0 0 0 0 0 0 0 0 0 0 0 0 0 0 0 0 0 0 0 0 0 0 0 0 0 0 0 0
0 0 0 0 0 0 0 0 0 0 0 0 0 0 0 0 0 0 0 0 0 0 0 0 0 0 0 0 0 0 0 0 0 0 0 0 0 0
0 0 0 0 0 0 0 0 0 0 0 0 0 0 0 0 0 0 0 0 0 0 0 0 0 0 0 0 0 0 0 0 0 0 0 0 0 0
0 0 0 0 0 0 0 0 0 0 0 0 0 0 0 0 0 0 0 0 0 0 0 0 0 0 0 0 0 0 0 0 0 0 0 0 0 0
0 0 0 0 0 0 0 0 0 0 0 0 0 0 0 0 0 0 0 0 0 0 0 0 0 0 0 0 0 0 0 0 0 0 0 0 0 0
0 0 0 0 0 0 0 0 0 0 0 0 0 0 0 0 0 0 0 0 0 0 0 0 0 0 0 0 0 0 0 0 0 0 0 0 0 0
0 0 0 0 0 0 0 0 0 0 0 0 0 0 0 0 0 0 0 0 0 0 0 0 0 0 0 0 0 0 0 0 0 0 0 0 0 0
0 0 0 0 0 0 0 0 0 0 0 0 0 0 0 0 0 0 0 0 0 0 0 0 0 0 0 0 0 0 0 0 0 0 0 0 0 0
0 0 0 0 0 0 0 0 0 0 0 0 0 0 0 0 0 0 0 0 0 0 0 0 0 0 0 0 0 0 0 0 0 0 0 0 0 0
0 0 0 0 0 0 0 0 0 0 0 0 0 0 0 0 0 0 0 0 0 0 0 0 0 0 0 0 0 0 0 0 0 0 0 0 0 0
0 0 0 0 0 0 0 0 0 0 0 0 0 0 0 0 0 0 0 0 0 0 0 0 0 0 0 0 0 0 0 0 0 0 0 0 0 0
0 0 0 0 0 0 0 0 0 0 0 0 0 0 0 0 0 0 0 0 0 0 0 0 0 0 0 0 0 0 0 0 0 0 0 0 0 0
0 0 0 0 0 0 0 0 0 0 0 0 0 0 0 0 0 0 0 0 0 0 0 0 0 0 0 0 0 0 0 0 0 0 0 0 0 0
0 0 0 0 0 0 0 0 0 0 0 0 0 0 0 0 0 0 0 0 0 0 0 0 0 0 0 0 0 0 0 0 0 0 0 0 0 0
0 0 0 0 0 0 0 0 0 0 0 0 0 0 0 0 0 0 0 0 0 0 0 0 0 0 0 0 0 0 0 0 0 0 0 0 0 0
0 0 0 0 0 0 0 0 0 0 0 0 0 0 0 0 0 0 0 0 0 0 0 0 0 0 0 0 0 0 0 0 0 0 0 0 0 0
0 0 0 0 0 0 0 0 0 0 0 0 0 0 0 0 0 0 0 0 0 0 0 0 0 0 0 0 0 0 0 0 0 0 0 0 0 0
Wind_Speed
1 1 1 1 1 1 1 0 2 2 2 3 2 2 2 2 5 4 4 9 11 12 12 12 12 13 12 13 12 10 9 7 7 5 3 2 1 0
1 2 2 1 1 1 1 1 0 1 2 2 2 2 2 3 6 4 4 9 10 11 11 12 12 12 12 12 11 11 10 8 7 6 5 3 2 3
2 2 2 2 2 1 1 1 1 1 2 2 2 1 2 3 3 3 3 3 4 9 10 10 10 10 10 11 10 10 9 8 7 6 5 4 3 3
2 3 2 3 3 2 2 2 2 2 2 3 2 1 2 1 2 2 2 3 2 6 8 8 8 9 9 9 9 9 9 9 8 7 6 6 5 4
3 3 3 3 3 2 3 2 2 2 2 3 2 1 1 1 1 2 3 2 2 4 6 7 7 7 7 8 8 8 8 7 6 6 6 5 5 5
5 4 4 3 3 2 2 2 2 2 3 3 3 2 1 1 2 2 2 2 2 3 4 4 5 6 6 7 7 8 7 6 5 5 4 4 4 4
4 4 4 5 6 4 3 3 2 2 3 3 2 2 1 1 1 1 2 2 2 3 3 2 2 2 2 4 5 6 6 6 5 5 4 4 4 5
3 3 3 4 6 7 8 8 6 4 3 2 2 2 1 1 1 2 2 2 2 3 3 3 1 1 1 1 3 5 5 5 5 5 5 5 5 6
3 2 2 3 4 3 5 7 7 8 6 3 3 2 2 1 2 2 1 1 1 2 2 2 2 2 2 2 3 3 4 4 4 5 5 6 6 7
2 3 3 3 2 3 3 4 3 3 4 4 3 3 3 3 2 1 1 1 2 1 1 1 2 2 3 2 1 1 3 4 5 6 7 7 7 8
2 2 3 3 4 4 3 3 2 2 4 5 5 4 4 4 3 2 2 2 1 1 2 1 2 3 3 2 2 3 5 6 6 7 8 9 9 8
2 2 2 4 5 4 2 2 2 1 2 1 1 1 1 2 3 3 2 1 0 1 2 2 2 3 4 3 2 3 4 6 8 9 10 10 10 4
3 2 3 6 5 4 2 1 2 3 2 1 1 1 1 1 2 2 2 2 1 1 0 2 1 1 1 4 3 2 2 2 3 5 9 11 11 7
3 2 3 7 6 5 3 3 3 2 1 1 1 1 1 1 1 1 0 0 2 3 2 0 1 1 1 3 4 3 3 3 3 4 3 8 9 12
3 5 6 7 6 4 5 6 4 2 1 2 2 2 2 2 1 1 1 2 3 4 4 4 4 3 3 4 4 4 4 4 3 3 3 4 4 4
3 5 7 7 6 5 5 4 3 3 3 3 2 2 2 2 2 2 1 1 2 3 3 4 5 5 5 6 6 7 5 5 4 4 5 5 5 4
4 3 3 3 3 3 3 3 3 3 3 2 2 2 2 2 2 2 2 2 2 3 3 2 4 5 7 6 7 8 7 7 7 6 6 6 5 5
7 4 4 5 5 5 5 4 4 5 4 4 3 3 3 3 3 2 2 3 4 4 4 3 2 2 3 6 11 9 7 7 6 5 5 7 8 5
7 5 5 5 5 5 5 5 5 5 4 4 4 4 4 4 3 4 4 4 5 5 5 3 3 3 5 6 5 8 5 4 4 5 5 6 8 7
6 6 6 6 6 6 5 5 5 4 4 5 5 5 5 4 4 5 5 5 5 5 5 4 4 5 6 5 5 4 6 6 5 6 6 6 7 11
7 7 7 6 6 6 6 6 6 5 5 5 5 6 6 6 6 6 6 9 8 6 7 6 6 8 4 3 6 6 5 9 10 7 6 6 8 7
7 8 7 7 7 6 6 6 6 6 6 6 6 6 6 6 7 7 7 6 6 6 7 5 4 4 4 6 9 9 8 7 9 16 17 14 7 5
8 7 7 7 7 6 6 7 8 7 7 7 7 7 7 7 7 7 7 7 6 7 6 6 5 5 6 7 8 9 11 10 8 7 8 13 18 22
Wind_Direction
56 62 75 53 37 20 9 144 195 209 181 117 96 51 38 44 35 45 29 36 39 41 44 44 43 40 37 37 40 48 59 62 67 73 82 95 95 332
74 84 78 61 49 33 22 32 68 182 155 111 102 75 45 47 45 45 38 45 43 44 45 44 43 42 39 39 42 45 51 56 58 56 51 49 43 35
72 85 79 70 69 42 36 47 44 81 134 111 93 89 69 49 32 30 39 43 35 42 41 40 40 39 40 40 40 41 43 43 39 36 32 32 27 17
86 91 85 79 67 46 49 55 54 55 112 129 112 92 79 67 46 39 39 46 31 39 37 37 37 36 38 40 40 39 38 36 34 31 27 23 15 2
77 80 76 82 72 57 58 59 51 60 81 116 114 94 81 60 47 35 38 28 21 36 35 31 32 34 36 38 39 34 29 26 24 21 15 8 356 343
67 67 65 74 80 75 70 59 62 76 88 104 106 98 84 53 65 39 18 4 4 26 19 14 25 32 36 38 34 26 18 11 7 4 1 353 341 332
79 75 75 79 76 73 75 57 61 82 89 99 103 92 77 63 53 26 24 347 4 26 5 347 7 14 22 36 36 20 12 7 1 355 347 339 332 323
114 106 103 85 86 81 78 70 69 85 100 103 109 116 114 93 65 47 43 33 334 340 11 326 357 17 3 67 19 11 2 1 359 354 344 334 328 320
139 135 120 107 95 95 87 78 67 66 71 105 114 119 112 94 89 55 42 26 257 281 14 322 339 354 334 355 14 13 5 355 348 343 333 323 317 313
136 139 134 125 109 101 98 87 75 61 62 66 94 91 94 93 98 127 179 326 292 316 61 338 332 335 332 325 320 14 349 342 337 334 327 318 307 301
138 122 131 138 141 117 105 108 96 81 87 94 99 104 97 89 80 70 48 44 354 344 23 37 340 332 321 315 313 334 329 323 322 320 317 315 310 307
164 158 157 162 165 158 143 148 148 149 115 94 82 93 102 98 83 101 117 111 353 306 10 38 5 359 330 311 323 327 323 315 318 320 317 311 304 303
179 185 193 187 185 195 190 169 180 157 158 175 188 173 133 117 99 89 103 142 186 244 3 52 2 340 300 304 308 304 311 315 321 315 314 310 301 293
185 187 190 189 197 212 216 215 206 176 157 188 195 190 168 150 125 103 89 195 216 236 265 224 226 238 287 293 289 304 312 300 298 297 298 308 307 304
193 194 188 194 206 224 231 228 218 194 197 211 216 213 186 165 152 174 247 252 258 252 246 229 225 237 237 254 277 293 309 300 290 289 295 295 288 289
207 214 213 216 216 224 235 233 204 197 200 209 214 200 171 166 193 208 228 263 280 274 244 223 218 222 244 253 264 274 274 280 293 293 290 285 276 266
181 183 191 200 210 217 219 215 205 210 220 205 200 197 198 201 213 210 215 228 249 272 279 248 226 224 234 248 262 263 267 268 270 279 283 284 275 260
199 196 206 210 213 214 214 213 209 209 207 202 202 202 206 212 223 219 219 231 251 261 265 265 259 270 267 255 234 249 257 262 267 270 271 284 287 273
211 208 214 216 217 214 211 209 213 209 198 198 203 206 208 216 225 231 231 238 248 255 258 253 243 245 268 282 275 227 227 256 273 276 271 271 281 284
211 214 218 218 216 213 213 212 213 206 201 204 205 208 210 217 225 231 233 237 247 254 258 248 237 233 242 257 271 271 243 253 264 272 275 275 274 282
217 219 219 217 215 213 213 211 209 209 207 205 210 213 214 217 226 230 234 243 245 247 251 252 243 250 247 249 266 268 256 252 255 257 266 278 286 283
219 220 219 217 215 213 212 210 212 214 212 213 215 216 216 217 225 228 230 235 240 244 251 256 245 242 229 243 261 275 284 281 274 274 268 257 259 263
224 222 219 216 215 212 211 213 215 218 217 216 217 216 215 220 224 227 230 232 238 243 249 255 249 241 244 249 261 271 277 283 286 283 271 266 264 264